W0AKY-13 Weather Reports


time (UTC)temp
F
wind
direction
speed
knots
gust
knots
rain 1hr
in
rain 24hr
in
rain mn
in
humidity
%
barometer
mb
20260906182627 91 120 1.7 1.7 0.00 0.00 0.00 60 1016.7
20260906182123 90 165 0.9 1.7 0.00 0.00 0.00 65 1016.8
20260906181618 91 124 2.6 2.6 0.00 0.00 0.00 64 1016.7
20260906181114 91 11 0.0 0.9 0.00 0.00 0.00 64 1016.8
20260906180609 90 101 0.9 0.9 0.00 0.00 0.00 64 1016.9
20260906180109 91 241 0.0 0.9 0.00 0.00 0.00 65 1017.0
20260906175607 91 135 0.9 0.9 0.00 0.00 0.00 63 1017.0
20260906175103 91 73 0.9 0.9 0.00 0.00 0.00 64 1017.3
20260906174600 91 88 0.0 0.0 0.00 0.00 0.00 64 1017.0
20260906174055 91 347 0.9 1.7 0.00 0.00 0.00 64 1017.2
20260906173550 91 142 1.7 2.6 0.00 0.00 0.00 66 1017.1
20260906173047 90 145 0.9 1.7 0.00 0.00 0.00 67 1017.3
20260906172546 89 90 0.9 0.9 0.00 0.00 0.00 68 1017.6
20260906172042 89 67 0.0 0.0 0.00 0.00 0.00 69 1017.6
20260906171542 89 67 0.9 0.9 0.00 0.00 0.00 68 1017.6
20260906171037 88 66 1.7 1.7 0.00 0.00 0.00 68 1017.7
20260906170533 88 345 2.6 2.6 0.00 0.00 0.00 69 1017.7
20260906170032 89 107 2.6 2.6 0.00 0.00 0.00 67 1017.5
20260906165529 90 339 0.9 0.9 0.00 0.00 0.00 68 1017.7
20260906165024 90 78 0.9 1.7 0.00 0.00 0.00 67 1017.6
20260906164523 89 256 0.9 1.7 0.00 0.00 0.00 71 1017.8
20260906164019 88 51 0.0 0.9 0.00 0.00 0.00 72 1018.1
20260906163514 87 82 0.0 0.9 0.00 0.00 0.00 73 1018.4
20260906163010 86 60 0.0 0.0 0.00 0.00 0.00 75 1018.4
20260906162507 86 57 0.0 0.0 0.00 0.00 0.00 75 1018.3
20260906162002 86 66 0.0 0.0 0.00 0.00 0.00 77 1018.3
20260906161456 86 70 0.9 0.9 0.00 0.00 0.00 75 1018.3
20260906160955 85 359 0.0 0.9 0.00 0.00 0.00 75 1018.3
20260906160454 85 62 0.0 0.9 0.00 0.00 0.00 75 1017.9
20260906155952 85 90 0.9 0.9 0.00 0.00 0.00 75 1018.1
20260906155451 86 171 0.9 1.7 0.00 0.00 0.00 75 1017.7
20260906154948 86 94 3.5 5.2 0.00 0.00 0.00 73 1017.6
20260906154443 86 92 1.7 1.7 0.00 0.00 0.00 76 1017.8
20260906153941 85 90 0.9 0.9 0.00 0.00 0.00 78 1017.8
20260906153440 84 96 0.0 0.0 0.00 0.00 0.00 79 1017.7
20260906152936 84 167 1.7 1.7 0.00 0.00 0.00 79 1017.7
20260906152435 83 77 0.9 0.9 0.00 0.00 0.00 81 1017.8
20260906151935 83 164 1.7 2.6 0.00 0.00 0.00 81 1017.7
20260906151430 83 119 0.9 0.9 0.00 0.00 0.00 80 1017.7
20260906150926 83 90 0.9 0.9 0.00 0.00 0.00 81 1017.5
20260906150421 83 136 1.7 1.7 0.00 0.00 0.00 81 1017.8
20260906145921 83 86 0.9 1.7 0.00 0.00 0.00 80 1017.5
20260906145419 83 146 1.7 2.6 0.00 0.00 0.00 80 1017.6
20260906144914 83 179 0.9 1.7 0.00 0.00 0.00 80 1017.6
20260906144409 83 127 0.9 1.7 0.00 0.00 0.00 82 1017.5
20260906143904 82 218 1.7 1.7 0.00 0.00 0.00 84 1017.6
20260906143400 82 94 0.9 1.7 0.00 0.00 0.00 84 1017.6
20260906142856 81 255 0.9 0.9 0.00 0.00 0.00 85 1017.7
20260906142355 81 150 0.9 0.9 0.00 0.00 0.00 85 1017.7
20260906141851 81 109 0.9 1.7 0.00 0.00 0.00 86 1017.9
20260906141350 80 135 0.9 1.7 0.00 0.00 0.00 85 1017.7
20260906140850 80 100 0.9 1.7 0.00 0.00 0.00 86 1017.8
20260906140345 80 215 1.7 1.7 0.00 0.00 0.00 87 1017.6
20260906135842 79 158 1.7 1.7 0.00 0.00 0.00 87 1017.9
20260906135337 79 37 0.9 0.9 0.00 0.00 0.00 87 1017.6
20260906134832 79 72 0.9 0.9 0.00 0.00 0.00 88 1018.1
20260906134327 79 189 0.9 1.7 0.00 0.00 0.00 88 1017.8
20260906133823 78 144 1.7 1.7 0.00 0.00 0.00 89 1018.1
20260906133319 78 233 0.9 1.7 0.00 0.00 0.00 91 1018.1
20260906132814 77 77 0.9 0.9 0.00 0.00 0.00 92 1018.1
20260906132309 76 227 1.7 2.6 0.00 0.00 0.00 94 1017.5
20260906131804 76 103 0.0 0.9 0.00 0.00 0.00 96 1017.5
20260906131259 75 149 0.9 0.9 0.00 0.00 0.00 97 1017.6
20260906130755 75 82 0.9 1.7 0.00 0.00 0.00 98 1017.7
20260906130250 75 81 0.9 0.9 0.00 0.00 0.00 99 1017.5
20260906125749 74 79 0.9 0.9 0.00 0.00 0.00 99 1017.4
20260906125246 74 61 0.0 0.0 0.00 0.00 0.00 99 1017.2
20260906124741 74 61 0.0 0.0 0.00 0.00 0.00 99 1017.2
20260906124237 73 61 0.0 0.0 0.00 0.00 0.00 99 1017.3
20260906123736 73 61 0.0 0.0 0.00 0.00 0.00 99 1017.0
20260906123231 73 61 0.0 0.0 0.00 0.00 0.00 99 1017.1
20260906122730 73 61 0.0 0.0 0.00 0.00 0.00 99 1017.2
20260906122226 73 61 0.0 0.0 0.00 0.00 0.00 99 1017.0
20260906121722 73 61 0.0 0.0 0.00 0.00 0.00 99 1016.9
20260906121218 72 61 0.0 0.0 0.00 0.00 0.00 99 1017.1
20260906120714 72 61 0.0 0.0 0.00 0.00 0.00 99 1016.9
20260906120211 72 61 0.0 0.0 0.00 0.00 0.00 99 1016.9
20260906115706 72 61 0.0 0.0 0.00 0.00 0.00 99 1016.8
20260906115201 72 61 0.0 0.0 0.00 0.00 0.00 99 1016.6
20260906114700 72 61 0.0 0.9 0.00 0.00 0.00 99 1016.7
20260906114156 72 61 0.0 0.0 0.00 0.00 0.00 99 1016.6
20260906113656 72 61 0.0 0.0 0.00 0.00 0.00 99 1016.6
20260906113155 71 61 0.0 0.0 0.00 0.00 0.00 99 1016.4
20260906112654 71 61 0.0 0.0 0.00 0.00 0.00 99 1016.6
20260906112152 71 61 0.0 0.0 0.00 0.00 0.00 99 1016.5
20260906111651 71 61 0.0 0.0 0.00 0.00 0.00 99 1016.6
20260906111146 71 61 0.0 0.0 0.00 0.00 0.00 99 1016.6
20260906110641 71 61 0.0 0.0 0.00 0.00 0.00 99 1016.6
20260906110136 71 61 0.0 0.0 0.00 0.00 0.00 99 1016.6
20260906105630 71 61 0.0 0.0 0.00 0.00 0.00 98 1016.6
20260906105127 72 61 0.0 0.0 0.00 0.00 0.00 99 1016.5
20260906104626 72 61 0.0 0.0 0.00 0.00 0.00 99 1016.4
20260906104125 72 61 0.0 0.0 0.00 0.00 0.00 99 1016.4
20260906103623 72 61 0.0 0.0 0.00 0.00 0.00 99 1016.5
20260906103119 72 61 0.0 0.0 0.00 0.00 0.00 99 1016.5
20260906102614 72 61 0.0 0.0 0.00 0.00 0.00 99 1016.3
20260906102109 72 61 0.0 0.0 0.00 0.00 0.00 99 1016.0
20260906101609 72 61 0.0 0.0 0.00 0.00 0.00 98 1016.2
20260906101109 72 61 0.0 0.0 0.00 0.00 0.00 98 1016.3
20260906100604 72 61 0.0 0.0 0.00 0.00 0.00 98 1016.3
20260906100105 72 61 0.0 0.0 0.00 0.00 0.00 98 1016.3
20260906095604 72 61 0.0 0.0 0.00 0.00 0.00 98 1016.3
20260906095100 72 61 0.0 0.0 0.00 0.00 0.00 98 1016.1
20260906094558 72 61 0.0 0.0 0.00 0.00 0.00 98 1016.1
20260906094055 72 61 0.0 0.0 0.00 0.00 0.00 98 1016.3
20260906093550 72 61 0.0 0.0 0.00 0.00 0.00 98 1016.2
20260906093045 73 61 0.0 0.0 0.00 0.00 0.00 98 1016.5
20260906092540 73 61 0.0 0.0 0.00 0.00 0.00 99 1016.1
20260906092035 73 61 0.0 0.0 0.00 0.00 0.00 98 1016.2
20260906091531 73 61 0.0 0.0 0.00 0.00 0.00 98 1016.1
20260906091027 73 61 0.0 0.0 0.00 0.00 0.00 98 1016.1
20260906090522 73 61 0.0 0.0 0.00 0.00 0.00 98 1016.0
20260906090017 73 61 0.0 0.0 0.00 0.00 0.00 98 1016.1
20260906085515 73 61 0.0 0.0 0.00 0.00 0.00 98 1016.2
20260906085015 73 61 0.0 0.0 0.00 0.00 0.00 98 1016.0
20260906084510 73 61 0.0 0.0 0.00 0.00 0.00 98 1016.1
20260906084009 73 61 0.0 0.0 0.00 0.00 0.00 98 1016.0
20260906083505 73 61 0.0 0.0 0.00 0.00 0.00 98 1016.0
20260906083004 73 61 0.0 0.0 0.00 0.00 0.00 98 1016.3
20260906082459 73 61 0.0 0.0 0.00 0.00 0.00 98 1016.1
20260906081955 73 62 0.0 0.0 0.00 0.00 0.00 98 1016.0
20260906081450 73 61 0.0 0.0 0.00 0.00 0.00 98 1015.9
20260906080946 73 61 0.0 0.0 0.00 0.00 0.00 98 1016.2
20260906080442 73 61 0.0 0.0 0.00 0.00 0.00 98 1015.8
20260906075943 73 61 0.0 0.9 0.00 0.00 0.00 98 1015.8
20260906075437 73 61 0.0 0.0 0.00 0.00 0.00 98 1016.0
20260906074933 73 61 0.0 0.0 0.00 0.00 0.00 98 1015.9
20260906074433 74 61 0.0 0.0 0.00 0.00 0.00 98 1016.0
20260906073931 74 61 0.0 0.0 0.00 0.00 0.00 98 1016.0
20260906073426 74 61 0.0 0.0 0.00 0.00 0.00 98 1016.1
20260906072923 74 61 0.0 0.0 0.00 0.00 0.00 98 1015.9
20260906072418 73 61 0.0 0.0 0.00 0.00 0.00 98 1015.8
20260906071914 74 61 0.0 0.0 0.00 0.00 0.00 98 1016.0
20260906071409 74 61 0.0 0.0 0.00 0.00 0.00 98 1015.9
20260906070905 74 61 0.0 0.0 0.00 0.00 0.00 98 1016.3
20260906070401 74 61 0.0 0.0 0.00 0.00 0.00 97 1016.3
20260906065856 74 61 0.0 0.0 0.00 0.00 0.00 97 1016.3
20260906065350 74 61 0.0 0.0 0.00 0.00 0.00 97 1016.0
20260906064846 74 61 0.0 0.0 0.00 0.00 0.00 97 1016.2
20260906064343 74 61 0.0 0.0 0.00 0.00 0.00 97 1016.3
20260906063842 74 61 0.0 0.0 0.00 0.00 0.00 97 1016.1
20260906063338 74 61 0.0 0.0 0.00 0.00 0.00 97 1016.4
20260906062833 75 61 0.0 0.0 0.00 0.00 0.00 97 1016.4
20260906062332 75 61 0.0 0.0 0.00 0.00 0.00 97 1016.3
20260906061827 75 61 0.0 0.0 0.00 0.00 0.00 97 1016.3
20260906061324 75 61 0.0 0.0 0.00 0.00 0.00 97 1016.4
20260906060818 75 61 0.0 0.0 0.00 0.00 0.00 97 1016.5
20260906060316 75 61 0.0 0.0 0.00 0.00 0.00 96 1016.4
20260906055812 75 61 0.0 0.0 0.00 0.00 0.00 96 1016.3
20260906055307 75 61 0.0 0.0 0.00 0.00 0.00 96 1016.4
20260906054802 75 61 0.0 0.0 0.00 0.00 0.00 96 1016.6
20260906054258 75 61 0.0 0.0 0.00 0.00 0.00 96 1016.3
20260906053754 75 61 0.0 0.0 0.00 0.00 0.00 96 1016.7
20260906053250 75 60 0.0 0.0 0.00 0.00 0.00 96 1016.4
20260906052744 75 60 0.0 0.0 0.00 0.00 0.00 95 1016.7
20260906052241 75 61 0.0 0.0 0.00 0.00 0.00 95 1016.6
20260906051738 76 61 0.0 0.0 0.00 0.00 0.00 95 1016.4
20260906051237 76 61 0.0 0.0 0.00 0.00 0.00 95 1016.5
20260906050732 76 61 0.0 0.0 0.00 0.00 0.00 95 1016.4
20260906034606 77 66 0.0 0.9 0.00 0.00 0.00 93 1015.8
20260906034100 77 66 0.0 0.9 0.00 0.00 0.00 93 1015.8
20260906033556 77 66 0.0 0.0 0.00 0.00 0.00 93 1015.7
20260906033051 78 66 0.0 0.9 0.00 0.00 0.00 92 1015.7
20260906032548 78 65 0.0 0.0 0.00 0.00 0.00 92 1015.8
20260906032048 78 64 0.0 0.0 0.00 0.00 0.00 92 1015.7
20260906031543 78 64 0.0 0.0 0.00 0.00 0.00 91 1015.9
20260906031039 78 64 0.0 0.0 0.00 0.00 0.00 91 1015.5
20260906030538 78 65 0.0 0.9 0.00 0.00 0.00 90 1015.4
20260906030038 79 64 0.0 0.0 0.00 0.00 0.00 89 1015.4
20260906025538 79 64 0.0 0.0 0.00 0.00 0.00 89 1015.4
20260906025036 79 64 0.0 0.0 0.00 0.00 0.00 88 1015.4
20260906024532 80 64 0.0 0.0 0.00 0.00 0.00 88 1015.4
20260906024031 80 64 0.0 0.0 0.00 0.00 0.00 87 1015.2
20260906023527 80 64 0.0 0.0 0.00 0.00 0.00 87 1015.2
20260906023022 80 64 0.0 0.9 0.00 0.00 0.00 87 1015.1
20260906022518 80 64 0.9 0.9 0.00 0.00 0.00 86 1015.2
20260906022013 80 64 0.0 0.0 0.00 0.00 0.00 86 1015.0
20260906021508 81 64 0.0 0.0 0.00 0.00 0.00 85 1014.9
20260906021003 81 64 0.0 0.0 0.00 0.00 0.00 84 1014.8
20260906020501 81 64 0.0 0.0 0.00 0.00 0.00 83 1014.5
20260906020001 82 64 0.0 0.0 0.00 0.00 0.00 83 1014.4
20260906015501 82 64 0.0 0.9 0.00 0.00 0.00 83 1014.4
20260906015001 82 64 0.0 0.0 0.00 0.00 0.00 82 1014.4
20260906014455 83 64 0.0 0.0 0.00 0.00 0.00 81 1014.3
20260906013951 82 64 0.0 0.0 0.00 0.00 0.00 80 1014.3
20260906013446 82 64 0.0 0.0 0.00 0.00 0.00 81 1014.1
20260906012943 82 72 0.9 0.9 0.00 0.00 0.00 82 1014.1
20260906012443 82 73 0.9 0.9 0.00 0.00 0.00 81 1013.8
20260906011942 83 73 0.9 0.9 0.00 0.00 0.00 79 1014.1
20260906011437 84 68 0.9 0.9 0.00 0.00 0.00 77 1014.1
20260906010933 84 47 0.0 0.0 0.00 0.00 0.00 76 1014.1
20260906010428 85 65 0.0 0.0 0.00 0.00 0.00 74 1014.0
20260906005924 86 65 0.0 0.9 0.00 0.00 0.00 73 1014.1
20260906005423 86 68 0.0 0.0 0.00 0.00 0.00 71 1014.0
20260906004922 87 68 0.0 0.0 0.00 0.00 0.00 70 1014.0
20260906004416 88 68 0.0 0.9 0.00 0.00 0.00 68 1014.0
20260906003912 88 67 0.9 0.9 0.00 0.00 0.00 67 1014.0
20260906003408 89 66 0.0 0.0 0.00 0.00 0.00 64 1014.3
20260906002903 89 66 0.0 0.0 0.00 0.00 0.00 62 1014.2
20260906002402 90 102 0.9 0.9 0.00 0.00 0.00 62 1013.8
20260906001858 90 101 0.9 0.9 0.00 0.00 0.00 61 1014.0
20260906001354 91 92 0.0 0.9 0.00 0.00 0.00 60 1014.2
20260906000853 91 82 0.0 0.9 0.00 0.00 0.00 59 1013.9
20260906000355 91 66 0.0 0.9 0.00 0.00 0.00 58 1013.9
20260905235849 91 159 0.9 0.9 0.00 0.00 0.00 57 1013.9
20260905235343 92 72 0.0 0.0 0.00 0.00 0.00 58 1014.0
20260905234838 93 150 0.9 1.7 0.00 0.00 0.00 56 1014.1
20260905234334 93 121 0.9 0.9 0.00 0.00 0.00 56 1014.0
20260905233829 93 98 0.0 0.9 0.00 0.00 0.00 55 1014.0
20260905233324 94 111 0.9 0.9 0.00 0.00 0.00 54 1014.0
20260905232822 94 198 0.9 0.9 0.00 0.00 0.00 52 1014.0
20260905232319 95 181 1.7 1.7 0.00 0.00 0.00 50 1014.0
20260905231815 95 76 0.0 0.9 0.00 0.00 0.00 51 1013.8
20260905231309 96 159 0.9 0.9 0.00 0.00 0.00 52 1013.8
20260905230806 96 193 1.7 1.7 0.00 0.00 0.00 47 1013.8
20260905230303 97 173 1.7 1.7 0.00 0.00 0.00 49 1013.9
20260905225803 98 178 1.7 1.7 0.00 0.00 0.00 47 1013.8
20260905225258 98 65 1.7 1.7 0.00 0.00 0.00 45 1013.9
20260905224758 99 187 1.7 1.7 0.00 0.00 0.00 46 1013.9
20260905224254 99 226 1.7 1.7 0.00 0.00 0.00 45 1014.0
20260905223749 100 25 1.7 1.7 0.00 0.00 0.00 45 1013.8
20260905223246 99 148 2.6 4.3 0.00 0.00 0.00 47 1013.9
20260905222741 98 100 0.9 0.9 0.00 0.00 0.00 49 1013.7
20260905222240 98 351 0.0 0.9 0.00 0.00 0.00 60 1013.7
20260905221736 98 26 0.0 0.9 0.00 0.00 0.00 59 1013.6
20260905221233 98 246 1.7 1.7 0.00 0.00 0.00 58 1013.8
20260905220729 98 350 0.9 0.9 0.00 0.00 0.00 59 1013.9
20260905220225 98 35 0.9 0.9 0.00 0.00 0.00 58 1013.6
20260905215724 99 30 0.9 1.7 0.00 0.00 0.00 56 1013.6
20260905215220 98 53 0.0 0.9 0.00 0.00 0.00 57 1013.6
20260905214715 98 20 0.0 0.0 0.00 0.00 0.00 61 1013.8
20260905214211 98 6 1.7 1.7 0.00 0.00 0.00 59 1013.9
20260905213706 98 46 0.0 0.0 0.00 0.00 0.00 57 1013.8
20260905213202 97 240 0.9 1.7 0.00 0.00 0.00 57 1014.2
20260905212657 96 322 2.6 2.6 0.00 0.00 0.00 58 1014.2
20260905212156 97 22 1.7 1.7 0.00 0.00 0.00 58 1014.2
20260905211650 97 17 1.7 1.7 0.00 0.00 0.00 57 1014.3
20260905211146 96 10 0.0 0.9 0.00 0.00 0.00 61 1014.6
20260905210643 97 336 2.6 2.6 0.00 0.00 0.00 58 1014.8
20260905210143 97 30 0.9 0.9 0.00 0.00 0.00 60 1014.8
20260905205642 96 29 0.9 0.9 0.00 0.00 0.00 59 1014.9
20260905205142 97 45 0.9 0.9 0.00 0.00 0.00 60 1015.0
20260905204641 97 37 0.0 0.9 0.00 0.00 0.00 59 1014.9
20260905204136 97 25 2.6 2.6 0.00 0.00 0.00 59 1015.1
20260905203631 96 39 0.0 0.0 0.00 0.00 0.00 60 1015.0
20260905203126 98 44 0.0 0.9 0.00 0.00 0.00 57 1015.2
20260905202622 97 248 1.7 2.6 0.00 0.00 0.00 58 1015.2
20260905202117 95 33 0.0 0.9 0.00 0.00 0.00 60 1015.2
20260905201612 96 183 1.7 1.7 0.00 0.00 0.00 61 1015.5
20260905201111 96 18 0.9 1.7 0.00 0.00 0.00 58 1015.4
20260905200607 96 25 1.7 1.7 0.00 0.00 0.00 59 1015.1
20260905195556 96 154 2.6 4.3 0.00 0.00 0.00 60 1015.6
20260905195051 95 44 0.9 1.7 0.00 0.00 0.00 60 1015.7
20260905194550 94 28 1.7 1.7 0.00 0.00 0.00 61 1015.7
20260905194050 93 40 0.0 0.9 0.00 0.00 0.00 62 1015.8
20260905193545 94 259 0.0 0.9 0.00 0.00 0.00 63 1015.9
20260905193041 94 42 0.0 0.9 0.00 0.00 0.00 63 1015.9
20260905192536 94 36 0.0 0.9 0.00 0.00 0.00 61 1016.2
20260905192032 95 36 0.0 0.9 0.00 0.00 0.00 58 1016.3
20260905191530 99 34 0.9 0.9 0.00 0.00 0.00 53 1016.4
20260905191030 99 30 0.9 1.7 0.00 0.00 0.00 49 1016.3
20260905190528 98 40 0.0 0.9 0.00 0.00 0.00 53 1016.4
20260905190022 98 132 0.9 1.7 0.00 0.00 0.00 57 1016.5
20260905185521 99 13 0.9 0.9 0.00 0.00 0.00 54 1016.3
20260905185021 100 52 0.9 1.7 0.00 0.00 0.00 51 1016.6
20260905184521 99 229 1.7 1.7 0.00 0.00 0.00 52 1016.4
20260905184019 98 41 0.0 0.0 0.00 0.00 0.00 54 1016.6
20260905183514 98 106 0.9 1.7 0.00 0.00 0.00 51 1016.5
20260905183009 97 219 2.6 2.6 0.00 0.00 0.00 55 1017.0